Location: downtown San Diego
(32.7310°N, 117.1990°W)
Time: 02:13:30
(UTC-07:00)

COSMOS 2406 - Pass Details

Date: 19 May 2017
Orbit: 842 x 865 km, 71.0° (Epoch: 25 September)

Event Time Altitude Azimuth Distance (km) Brightness Sun altitude
Exits shadow 21:43:59 31° 183° (S) 1,454 4.1 -21.7°
Maximum altitude 21:46:45 69° 108° (ESE) 911 3.1 -22.2°
Drops below altitude 10° 21:52:26 10° 26° (NNE) 2,484 5.9 -23.0°
Sets 21:54:53 0° 24° (NNE) 3,420 6.6 -23.4°
